Regional Weather Roundup
Issued by NWS

Home | Current Version | Previous Version | Text Only | Print | Product List | Glossary On
Versions: 1 2 3 4 5 6 7 8 9 10 11 12 13 14 15 16 17 18 19 20 21 22 23 24 25 26 27 28 29 30 31 32 33 34 35 36 37 38 39 40 41 42 43 44 45 46 47 48 49 50
000
ASUS44 KJAN 061710
RWRMS

MISSISSIPPI HOURLY WEATHER ROUNDUP
NATIONAL WEATHER SERVICE JACKSON MS
1100 AM CST TUE DEC 06 2016

NOTE: "FAIR: INDICATES FEW OR NO CLOUDS BELOW 12,000 FEET WITH NO
SIGNIFICANT WEATHER AND/OR OBSTRUCTIONS TO VISIBILITY.

MSZ001>002-007>008-010>013-018>021-025>028-034>036-061800-
NORTHWEST MISSISSIPPI

CITY           SKY/WX    TMP DP  RH WIND       PRES   REMARKS
CLEVELAND      CLOUDY    50  49  98 NW10      29.92S
GREENWOOD      CLOUDY    50  46  86 NW7       29.91F
GREENVILLE     CLOUDY    50  44  80 NW8       29.90S
OXFORD         CLOUDY    45  43  93 W15       29.90R
WINONA         CLOUDY    48  48  98 W7        29.90S FOG
$$

MSZ003>006-009-014>017-022>024-029>033-037>039-061800-
NORTHEAST MISSISSIPPI

CITY           SKY/WX    TMP DP  RH WIND       PRES   REMARKS
COLUMBUS AFB   NOT AVBL
GOLDN TRIANGLE CLOUDY    52  45  76 W12G18    29.82F
STARKVILLE     CLOUDY    50  46  87 W12       29.89R
TUPELO         CLOUDY    50  46  86 W9        29.83R
$$

MSZ040-058-061800-
CENTRAL MISSISSIPPI

CITY           SKY/WX    TMP DP  RH WIND       PRES   REMARKS
JACKSON INTL   CLOUDY    52  48  86 W7        29.93R
JACKSON HAWKNS CLOUDY    51  47  86 W9        29.94  FOG
MADISON        CLOUDY    50  46  87 W7        29.92S
MERIDIAN KEY   CLOUDY    56  48  74 W8        29.91R
MERIDIAN NAS   CLOUDY    57  47  69 W9        29.88S
VICKSBURG VKS  CLOUDY    52  50  93 W5        29.95R
$$

MSZ059>079-061800-
SOUTH MISSISSIPPI

CITY           SKY/WX    TMP DP  RH WIND       PRES   REMARKS
BROOKHAVEN     CLOUDY   N/A N/A N/A NW8       29.95F
HATTIESBURG    CLOUDY    57  50  77 NW9       29.93S
LAUREL         CLOUDY    54  51  92 W8G16     29.93R
MCCOMB         CLOUDY    53  48  83 NW9       29.94S
NATCHEZ        CLOUDY    52  46  82 W8        29.96S
PINE BELT      CLOUDY    54  46  76 NW8       29.93F
$$

MSZ080>082-061800-
COASTAL MISSISSIPPI

CITY           SKY/WX    TMP DP  RH WIND       PRES   REMARKS
BAY ST LOUIS   PTSUNNY   59  48  67 W9        29.93S
BILOXI         PTSUNNY   64  56  76 VRB5      29.91S
PASCAGOULA     CLOUDY    63  52  67 NW9       29.90F
GULFPORT       MOSUNNY   62  54  74 NW15      29.91S
$$

LAZ007>009-015>016-023>026-061800-
NORTHEAST LOUISIANA

CITY           SKY/WX    TMP DP  RH WIND       PRES   REMARKS
BASTROP        CLOUDY    51  50  97 NW5       29.96R
TALLULAH/VBURG CLOUDY    51  47  86 NW8       29.96R
VIDALIA        CLOUDY    51  49  92 W6        30.00S
$$



USA.gov is the U.S. government's official web portal to all federal, state and local government web resources and services.